This is the latest recevied weather packets stored in our database for station/object PE1BMM-13. If no packets are shown the sender has not sent any weather packets the latest 1 day(s).
| Time | Temp. | Humidity | Pressure | Rain* | Wind** | Luminosity | Snow |
|---|---|---|---|---|---|---|---|
| 1778015148 | 9.44° C | 80% | 1011.9 hPa | 0 mm | 0.45 m/s, 131° | - | - |
| 1778014846 | 9.44° C | 80% | 1011.9 hPa | 0 mm | 0.89 m/s, 88° | - | - |
| 1778014552 | 9.44° C | 79% | 1012 hPa | 0 mm | 0.89 m/s, 95° | - | - |
| 1778014269 | 10° C | 79% | 1011.9 hPa | 0 mm | 0.89 m/s, 98° | - | - |
| 1778013944 | 10° C | 79% | 1011.9 hPa | 0 mm | 0.45 m/s, 135° | - | - |
| 1778013647 | 10° C | 79% | 1011.9 hPa | 0 mm | 0.89 m/s, 97° | - | - |
| 1778013342 | 10° C | 79% | 1012 hPa | 0 mm | 0.89 m/s, 141° | - | - |
| 1778013044 | 10° C | 79% | 1011.8 hPa | 0 mm | 0.45 m/s, 122° | - | - |
| 1778012743 | 10° C | 79% | 1011.7 hPa | 0 mm | 0.45 m/s, 72° | - | - |
| 1778012441 | 10° C | 78% | 1011.8 hPa | 0 mm | 0.45 m/s, 113° | - | - |
| 1778012141 | 10° C | 78% | 1011.8 hPa | 0 mm | 0.45 m/s, 30° | - | - |
| 1778011840 | 10° C | 78% | 1011.7 hPa | 0 mm | 0.89 m/s, 30° | - | - |
| 1778011541 | 10° C | 77% | 1011.7 hPa | 0 mm | 0.89 m/s, 60° | - | - |
| 1778011242 | 10° C | 77% | 1011.6 hPa | 0 mm | 0.89 m/s, 39° | - | - |
| 1778010952 | 10° C | 77% | 1011.6 hPa | 0 mm | 0.89 m/s, 127° | - | - |
| 1778010667 | 10° C | 76% | 1011.4 hPa | 0 mm | 0.89 m/s, 65° | - | - |
| 1778010338 | 10° C | 76% | 1011.6 hPa | 0 mm | 0.89 m/s, 59° | - | - |
| 1778010037 | 10° C | 76% | 1011.5 hPa | 0 mm | 0.89 m/s, 335° | - | - |
| 1778009736 | 10° C | 76% | 1011.4 hPa | 0 mm | 0.89 m/s, 1° | - | - |
| 1778009437 | 10° C | 76% | 1011.4 hPa | 0 mm | 0.89 m/s, 56° | - | - |
| 1778009138 | 10.56° C | 75% | 1011.4 hPa | 0 mm | 0.89 m/s, 60° | - | - |
| 1778008836 | 10.56° C | 75% | 1011.4 hPa | 0 mm | 0.89 m/s, 91° | - | - |
| 1778008536 | 10.56° C | 75% | 1011.4 hPa | 0 mm | 0.89 m/s, 122° | - | - |
| 1778008237 | 10.56° C | 75% | 1011.3 hPa | 0 mm | 0.89 m/s, 87° | - | - |
| 1778007936 | 10.56° C | 75% | 1011.5 hPa | 0 mm | 0.89 m/s, 352° | - | - |
* Rain latest hour (hover to see other rain measurements)
** Current wind speed in m/s (hover to see current wind gust speed)